Flag for U.S.A. Weather past 2 weeks in Birmingham, Alabama, U.S.A.

Now
71 °F

Sunny.


Feels Like: 77 °F
Forecast: 60 / 84 °F
Wind: 7 mph from North

Location: Birmingham International Airport

Current Time: Jul 29, 2014 at 8:22:34 PM

Latest Report: Jul 29, 2014 at 7:53 PM


Visibility: 10 mi

Pressure: 30.05 "Hg

Humidity: 47%

Dew point: 50 °F

Location of BirminghamLocation

Historic Weather in Birmingham — Graph

°F

Birmingham temperature yesterday

Maximum temperature yesterday: 92 °F (at 1:53 PM)
Minimum temperature yesterday: 70 °F (at 11:53 PM)
Average temperature yesterday: 83 °F

Past Weeks' High & Low Weather Summary

 TemperatureHumidityPressure
High96 °F (Jul 27, 3:53 PM)97% (Jul 15, 3:53 AM)30.14 "Hg (Jul 15, 3:53 AM)
Low61 °F (Jul 17, 2:53 AM)31% (Jul 26, 3:53 PM)29.85 "Hg (Jul 15, 4:53 PM)
Average78 °F69%30.00 "Hg
* Reported Jul 14 6:53 PM — Jul 29 6:53 PM, Birmingham, Weather by CustomWeather, © 2014

Note: Actual official high and low records may vary slightly from our data, if they occured in-between our weather recording intervals... More about our weather records

Advertising

Birmingham weather history for previous 24 hours

 ConditionsComfort  
Time TempWeatherWind HumidityBarometerVisibility
6:53 PM
Jul 29
77 °FSunny.12 mph35%30.04 "Hg10 mi
5:53 PM80 °FPassing clouds.13 mph34%30.03 "Hg10 mi
4:53 PM81 °FPassing clouds.10 mph34%30.03 "Hg10 mi
3:53 PM83 °FScattered clouds.18 mph36%30.02 "Hg10 mi
2:53 PM82 °FScattered clouds.17 mph37%30.03 "Hg10 mi
1:53 PM80 °FPartly sunny.12 mph41%30.03 "Hg10 mi
12:53 PM82 °FPartly sunny.13 mph41%30.04 "Hg10 mi
11:53 AM79 °FPartly sunny.12 mph45%30.05 "Hg10 mi
10:53 AM81 °FPassing clouds.9 mph45%30.06 "Hg10 mi
9:53 AM77 °FScattered clouds.10 mph54%30.06 "Hg10 mi
8:53 AM75 °FPassing clouds.7 mph60%30.06 "Hg10 mi
7:53 AM71 °FSunny.6 mph73%30.04 "Hg10 mi
6:53 AM67 °FClear.No wind85%30.02 "Hg10 mi
5:53 AM65 °FClear.No wind91%30.01 "Hg10 mi
4:53 AM65 °FClear.No wind91%30.00 "Hg10 mi
3:53 AM66 °FClear.No wind87%30.00 "Hg10 mi
2:53 AM68 °FClear.No wind82%29.98 "Hg10 mi
1:53 AM69 °FClear.No wind79%30.00 "Hg10 mi
12:53 AM68 °FClear.6 mph82%30.01 "Hg10 mi
11:53 PM
Jul 28
70 °FClear.6 mph76%30.02 "Hg10 mi
10:53 PM73 °FClear.5 mph66%30.01 "Hg10 mi
9:53 PM72 °FClear.5 mph68%30.01 "Hg10 mi
8:53 PM75 °FClear.6 mph60%29.99 "Hg10 mi
Weather by CustomWeather, © 2014

See weather overviewHow to use our weather pages